Погода в Канчанабури

Таиланд     14°01′19″N   99°31′57″E
темп.,
°C
ветер,
м/с
пор.,
м/с
влажн.,
%
обл.,
%
осадки,
мм/ч
давл.,
гПа
погр.,
м
11 апреля, вс
вс1101:00+27ю22735 1.1 101192
04:00+26юз117795 2.8 101040
07:00+26з237560 2.8 1012164
10:00+32юв235099 0.0 10141014
13:00+36юв3438100 0.0 10112570
16:00+35юв3341100 0.2 10091598
19:00+32ююв4748100 0.5 1010364
22:00+29ю1265100 0.9 101290
12 апреля, пн
пн1201:00+28ююв117048 0.9 101139
04:00+27з117219 0.0 101020
07:00+27зсз237232 0.0 1012147
10:00+33зсз114898 0.0 1013956
13:00+37юв223694 0.0 10102634
16:00+36в333662 0.7 10081369
19:00+32ююв465171 0.8 1009683
22:00+29ю236275 1.7 1012347
13 апреля, вт
вт1301:00+28з116973 1.7 101159
04:00+27зсз2477100 0.1 1010196
07:00+26з227783 0.1 1012191
10:00+32зюз325212 0.0 1012914
13:00+36зюз2237100 0.0 10092180
16:00+36в2234100 0.1 10062617
19:00+31ююз455499 0.2 1008702
22:00+30юв346292 0.8 1011480
14 апреля, ср
ср1401:00+28юз227097 1.7 1010178
04:00+27з2274100 0.0 1009141
07:00+27з2374100 0.1 1011200
10:00+32зсз225160 0.0 1012944
13:00+36юз3239100 0.2 10092576
16:00+31ююз4554100 0.4 1008684
19:00+30зюз255582 0.6 1008349
22:00+29юз236594 0.0 101094
15 апреля, чт
чт1501:00+27зюз127189 0.0 101090
04:00+26зюз127767 0.0 100999
07:00+26з2376100 0.0 1010200
10:00+32з3452100 0.0 1011885
13:00+36з4438100 0.0 10081874
16:00+37юз343482 0.0 10052369
19:00+32з47528 0.0 1007527
22:00+30сз226116 0.1 1009103